This is the latest recevied weather packets stored in our database for station/object W8RSN-13. If no packets are shown the sender has not sent any weather packets the latest 10 day(s).
| Time | Temp. | Humidity | Pressure | Rain* | Wind** | Luminosity | Snow |
|---|---|---|---|---|---|---|---|
| 1788225867 | 30.56° C | 31% | 1013.4 hPa | - | - | - | - |
| 1788225566 | 30.56° C | 33% | 1013.6 hPa | - | - | - | - |
| 1788225265 | 30.56° C | 33% | 1013.5 hPa | - | - | - | - |
| 1788224964 | 30.56° C | 29% | 1013.4 hPa | - | - | - | - |
| 1788224663 | 30.56° C | 28% | 1013.4 hPa | - | - | - | - |
| 1788224363 | 30.56° C | 26% | 1013.5 hPa | - | - | - | - |
| 1788224062 | 30.56° C | 27% | 1013.5 hPa | - | - | - | - |
| 1788223761 | 30° C | 28% | 1013.4 hPa | - | - | - | - |
| 1788223460 | 30.56° C | 27% | 1013.4 hPa | - | - | - | - |
| 1788223159 | 30.56° C | 33% | 1013.3 hPa | - | - | - | - |
| 1788222858 | 30° C | 34% | 1013.6 hPa | - | - | - | - |
| 1788222557 | 30.56° C | 32% | 1013.5 hPa | - | - | - | - |
| 1788222256 | 30.56° C | 32% | 1013.4 hPa | - | - | - | - |
| 1788221975 | 30.56° C | 36% | 1013.3 hPa | - | - | - | - |
| 1788221674 | 30.56° C | 36% | 1013.3 hPa | - | - | - | - |
| 1788221374 | 30.56° C | 38% | 1013.4 hPa | - | - | - | - |
| 1788221073 | 30.56° C | 39% | 1013.4 hPa | - | - | - | - |
| 1788220772 | 30.56° C | 40% | 1013.2 hPa | - | - | - | - |
| 1788220471 | 30.56° C | 38% | 1013.1 hPa | - | - | - | - |
| 1788220170 | 31.11° C | 39% | 1013.2 hPa | - | - | - | - |
| 1788219869 | 31.11° C | 34% | 1013.4 hPa | - | - | - | - |
| 1788219568 | 31.11° C | 33% | 1013.3 hPa | - | - | - | - |
| 1788219268 | 31.11° C | 32% | 1013.1 hPa | - | - | - | - |
| 1788218967 | 31.11° C | 35% | 1013.3 hPa | - | - | - | - |
| 1788218666 | 31.67° C | 33% | 1013.3 hPa | - | - | - | - |
* Rain since midnight (hover to see other rain measurements)
** Current wind speed in m/s (hover to see current wind gust speed)